Flag for Brazil Weather past 2 weeks in Itabuna, Bahia, Brazil

Now
81 °F

Scattered clouds.


Feels Like: 83 °F
Forecast: N/A
Wind: 12 mph from East

Location: Salvador Aeroporto

Current Time: Dec 28, 2014 at 5:53:57 PM

Latest Report: Dec 28, 2014 at 5:00 PM


Visibility: N/A

Pressure: 29.89 "Hg

Humidity: 66%

Dew point: 68 °F

Location of ItabunaLocation

Historic Weather in Itabuna — Graph

°F

Itabuna temperature yesterday

Maximum temperature yesterday: 82 °F (at 11:00 AM)
Minimum temperature yesterday: 75 °F (at 1:00 AM)
Average temperature yesterday: 78 °F

Past Weeks' High & Low Weather Summary

 TemperatureHumidityPressure
High86 °F (Dec 24, 10:00 AM)100% (Dec 18, 12:00 AM)30.07 "Hg (Dec 18, 12:00 AM)
Low39 °F (Dec 18, 12:00 AM)58% (Dec 26, 10:00 AM)29.83 "Hg (Dec 14, 3:00 PM)
Average79 °F78%29.94 "Hg
* Reported Dec 13 5:00 PM — Dec 28 5:00 PM, Itabuna, Weather by CustomWeather, © 2014

Note: Actual official high and low records may vary slightly from our data, if they occured in-between our weather recording intervals... More about our weather records

Advertising

Itabuna weather history for previous 24 hours

 ConditionsComfort  
Time TempWeatherWind HumidityBarometerVisibility
5:00 PM
Dec 28
81 °FScattered clouds.12 mph66%29.89 "HgN/A
4:00 PM82 °FScattered clouds.9 mph66%29.89 "HgN/A
3:00 PM82 °FScattered clouds.10 mph62%29.89 "HgN/A
2:00 PM84 °FScattered clouds.14 mph58%29.92 "HgN/A
1:00 PM84 °FScattered clouds.13 mph62%29.92 "HgN/A
12:00 PM84 °FScattered clouds.14 mph62%29.95 "HgN/A
11:00 AM84 °FScattered clouds.10 mph58%29.98 "HgN/A
10:00 AM82 °FScattered clouds.10 mph62%29.98 "HgN/A
9:00 AM84 °FScattered clouds.9 mph58%30.01 "HgN/A
8:00 AM82 °FScattered clouds.9 mph62%29.98 "HgN/A
7:00 AM81 °FScattered clouds.9 mph66%30.01 "HgN/A
6:00 AM79 °FPassing clouds.8 mph70%29.98 "HgN/A
5:00 AM79 °FPassing clouds.7 mph70%29.98 "HgN/A
4:00 AM77 °FPassing clouds.7 mph74%29.95 "HgN/A
3:00 AM77 °FPassing clouds.5 mph79%29.95 "HgN/A
2:00 AM77 °FPassing clouds.6 mph79%29.95 "HgN/A
1:00 AM77 °FPassing clouds.3 mph79%29.95 "HgN/A
12:00 AM79 °FPassing clouds.9 mph74%29.98 "HgN/A
11:00 PM
Dec 27
79 °FPartly cloudy.6 mph74%29.98 "HgN/A
10:00 PM79 °FPartly cloudy.6 mph74%30.01 "HgN/A
9:00 PM77 °FPartly cloudy.7 mph79%30.01 "HgN/A
8:00 PM79 °FPartly cloudy.7 mph74%29.98 "HgN/A
7:00 PM79 °FPassing clouds.9 mph74%29.98 "HgN/A
6:00 PM79 °FBroken clouds.10 mph70%29.98 "HgN/A
5:00 PM77 °FBroken clouds.14 mph79%29.98 "HgN/A
Weather by CustomWeather, © 2014

See weather overviewHow to use our weather pages